• în Republica Moldova
  • Lista ţărilor
  • Pe 7 zile
  • Temperatura apei
  • Hartă satelitară
  • Meteo pe hartă
  • Widget-uri
  • user-avatar
    Intrare

    Meteo pe oră la Prutz

    Astăzi, 30 Aprilie, Duminică

    Timp Temperatura Precipitaţii Vânt Presiune Umiditate
    00:00 -2°C° 0 mm 1 m/s 629 mmHg 96%
    01:00 -4°C° 0 mm 2 m/s 629 mmHg 95%
    02:00 -4°C° 0 mm 2 m/s 629 mmHg 96%
    03:00 -4°C° 0 mm 2 m/s 629 mmHg 96%
    04:00 -4°C° 0 mm 2 m/s 629 mmHg 96%
    05:00 -2°C° 0 mm 2 m/s 630 mmHg 95%
    06:00 -1°C° 0 mm 2 m/s 630 mmHg 94%
    07:00 +2°C° 0 mm 1 m/s 630 mmHg 92%
    08:00 +4°C° 0 mm 1 m/s 630 mmHg 91%
    09:00 +5°C° 0 mm 1 m/s 630 mmHg 90%
    10:00 +7°C° 0 mm 1 m/s 631 mmHg 89%
    11:00 +8°C° 0 mm 1 m/s 630 mmHg 87%
    12:00 +7°C° 0 mm 2 m/s 630 mmHg 86%
    13:00 +8°C° 0 mm 2 m/s 630 mmHg 84%
    14:00 +8°C° 0 mm 2 m/s 630 mmHg 84%
    15:00 +8°C° 0 mm 2 m/s 629 mmHg 84%
    16:00 +8°C° 0 mm 2 m/s 629 mmHg 84%
    17:00 +7°C° 0 mm 2 m/s 629 mmHg 87%
    18:00 +5°C° 0 mm 2 m/s 628 mmHg 91%
    19:00 +4°C° 0 mm 2 m/s 628 mmHg 95%
    20:00 +3°C° 0 mm 2 m/s 628 mmHg 95%
    21:00 +2°C° 0 mm 2 m/s 628 mmHg 95%
    22:00 +1°C° 0 mm 2 m/s 628 mmHg 95%
    23:00 0°C° 0 mm 3 m/s 627 mmHg 95%

    Mâine, 1 Mai, Luni

    Timp Temperatura Precipitaţii Vânt Presiune Umiditate
    00:00 0°C° 0 mm 3 m/s 627 mmHg 94%
    01:00 -1°C° 0 mm 3 m/s 627 mmHg 93%
    02:00 -1°C° 0 mm 3 m/s 626 mmHg 93%
    03:00 -1°C° 0 mm 3 m/s 626 mmHg 93%
    04:00 -2°C° 0 mm 3 m/s 626 mmHg 92%
    05:00 -1°C° 0 mm 2 m/s 626 mmHg 90%
    06:00 +1°C° 0 mm 2 m/s 627 mmHg 88%
    07:00 +2°C° 0 mm 2 m/s 628 mmHg 86%
    08:00 +3°C° 0,1 mm 2 m/s 628 mmHg 85%
    09:00 +5°C° 0,1 mm 2 m/s 629 mmHg 84%
    10:00 +6°C° 0,1 mm 2 m/s 629 mmHg 82%
    11:00 +5°C° 1,7 mm 2 m/s 629 mmHg 87%
    12:00 +4°C° 1,7 mm 2 m/s 629 mmHg 91%
    13:00 +3°C° 1,7 mm 2 m/s 629 mmHg 95%
    14:00 +2°C° 1,9 mm 2 m/s 629 mmHg 96%
    15:00 +3°C° 1,9 mm 1 m/s 629 mmHg 96%
    16:00 +2°C° 1,9 mm 1 m/s 629 mmHg 97%
    17:00 +2°C° 1,2 mm 1 m/s 629 mmHg 97%
    18:00 +1°C° 1,2 mm 1 m/s 630 mmHg 97%
    19:00 +1°C° 1,2 mm 1 m/s 630 mmHg 98%
    20:00 0°C° 0,8 mm 1 m/s 630 mmHg 98%
    21:00 -1°C° 0,8 mm 1 m/s 630 mmHg 97%
    22:00 -1°C° 0,8 mm 1 m/s 630 mmHg 97%
    23:00 -2°C° 0,4 mm 1 m/s 630 mmHg 97%

    Poimâine, 2 Mai, Marţi

    Timp Temperatura Precipitaţii Vânt Presiune Umiditate
    00:00 -2°C° 0,4 mm 1 m/s 630 mmHg 96%
    01:00 -2°C° 0,4 mm 1 m/s 630 mmHg 96%
    02:00 -3°C° 0,1 mm 1 m/s 630 mmHg 96%
    03:00 -6°C° 0,1 mm 1 m/s 629 mmHg 96%
    04:00 -7°C° 0,1 mm 1 m/s 629 mmHg 97%
    05:00 -4°C° 0 mm 1 m/s 630 mmHg 96%
    06:00 -2°C° 0 mm 1 m/s 631 mmHg 95%
    07:00 0°C° 0 mm 1 m/s 631 mmHg 94%
    08:00 +2°C° 0 mm 1 m/s 632 mmHg 94%
    09:00 +3°C° 0 mm 1 m/s 632 mmHg 95%
    10:00 +5°C° 0 mm 1 m/s 632 mmHg 95%
    11:00 +6°C° 0 mm 1 m/s 632 mmHg 94%
    12:00 +6°C° 0 mm 1 m/s 632 mmHg 93%
    13:00 +6°C° 0 mm 2 m/s 632 mmHg 92%
    14:00 +6°C° 0 mm 2 m/s 632 mmHg 91%
    15:00 +7°C° 0 mm 2 m/s 632 mmHg 90%
    16:00 +7°C° 0 mm 2 m/s 632 mmHg 89%
    17:00 +7°C° 0,1 mm 1 m/s 632 mmHg 91%
    18:00 +5°C° 0,1 mm 1 m/s 631 mmHg 93%
    19:00 +4°C° 0,1 mm 1 m/s 631 mmHg 95%
    20:00 +3°C° 0,1 mm 1 m/s 631 mmHg 95%
    21:00 +3°C° 0,1 mm 1 m/s 631 mmHg 96%
    22:00 +1°C° 0,1 mm 2 m/s 631 mmHg 96%
    23:00 +1°C° 0,1 mm 2 m/s 631 mmHg 95%

    3 Mai, Miercuri

    Timp Temperatura Precipitaţii Vânt Presiune Umiditate
    00:00 +1°C° 0,1 mm 2 m/s 631 mmHg 95%
    01:00 +1°C° 0,1 mm 1 m/s 631 mmHg 95%
    02:00 +1°C° 0,2 mm 1 m/s 631 mmHg 95%
    03:00 +2°C° 0,2 mm 1 m/s 631 mmHg 95%
    04:00 +2°C° 0,2 mm 1 m/s 631 mmHg 95%
    05:00 +2°C° 0,8 mm 1 m/s 631 mmHg 95%
    06:00 +3°C° 0,8 mm 1 m/s 631 mmHg 95%
    07:00 +3°C° 0,8 mm 1 m/s 631 mmHg 96%
    08:00 +4°C° 0,8 mm 1 m/s 632 mmHg 95%
    09:00 +5°C° 0,8 mm 1 m/s 632 mmHg 94%
    10:00 +5°C° 0,8 mm 1 m/s 632 mmHg 93%
    11:00 +6°C° 0,6 mm 1 m/s 632 mmHg 92%
    12:00 +7°C° 0,6 mm 1 m/s 632 mmHg 90%
    13:00 +8°C° 0,6 mm 1 m/s 632 mmHg 88%
    14:00 +7°C° 1,1 mm 1 m/s 632 mmHg 89%
    15:00 +7°C° 1,1 mm 1 m/s 631 mmHg 90%
    16:00 +7°C° 1,1 mm 1 m/s 631 mmHg 92%
    17:00 +6°C° 1,3 mm 1 m/s 631 mmHg 93%
    18:00 +5°C° 1,3 mm 1 m/s 631 mmHg 95%
    19:00 +4°C° 1,3 mm 1 m/s 631 mmHg 97%
    20:00 +4°C° 0,9 mm 1 m/s 631 mmHg 97%
    21:00 +3°C° 0,9 mm 1 m/s 631 mmHg 97%
    22:00 +1°C° 0,9 mm 0 m/s 631 mmHg 97%
    23:00 +2°C° 0,4 mm 1 m/s 630 mmHg 96%

    4 Mai, Joi

    Timp Temperatura Precipitaţii Vânt Presiune Umiditate
    00:00 +2°C° 0,4 mm 1 m/s 630 mmHg 96%
    01:00 +1°C° 0,4 mm 1 m/s 630 mmHg 96%
    02:00 +1°C° 0,2 mm 1 m/s 630 mmHg 95%
    03:00 0°C° 0,2 mm 1 m/s 629 mmHg 95%
    04:00 0°C° 0,2 mm 1 m/s 629 mmHg 95%
    05:00 0°C° 0,1 mm 0 m/s 629 mmHg 94%
    06:00 +2°C° 0,1 mm 0 m/s 630 mmHg 93%
    07:00 +3°C° 0,1 mm 0 m/s 630 mmHg 92%
    08:00 +4°C° 0,2 mm 0 m/s 631 mmHg 89%
    09:00 +5°C° 0,2 mm 0 m/s 631 mmHg 87%
    10:00 +7°C° 0,2 mm 1 m/s 631 mmHg 84%
    11:00 +8°C° 0,5 mm 1 m/s 631 mmHg 84%
    12:00 +8°C° 0,5 mm 1 m/s 630 mmHg 84%
    13:00 +8°C° 0,5 mm 1 m/s 630 mmHg 84%
    14:00 +8°C° 1,3 mm 1 m/s 630 mmHg 86%
    15:00 +7°C° 1,3 mm 1 m/s 630 mmHg 88%
    16:00 +7°C° 1,3 mm 1 m/s 629 mmHg 90%
    17:00 +6°C° 1,7 mm 1 m/s 629 mmHg 92%
    18:00 +5°C° 1,7 mm 1 m/s 629 mmHg 94%
    19:00 +5°C° 1,7 mm 1 m/s 629 mmHg 96%
    20:00 +4°C° 1,1 mm 1 m/s 630 mmHg 97%
    21:00 +4°C° 1,1 mm 1 m/s 630 mmHg 97%
    22:00 +3°C° 1,1 mm 1 m/s 630 mmHg 97%
    23:00 +3°C° 0,4 mm 1 m/s 630 mmHg 97%

    5 Mai, Vineri

    Timp Temperatura Precipitaţii Vânt Presiune Umiditate
    00:00 +3°C° 0,4 mm 1 m/s 630 mmHg 97%
    01:00 +2°C° 0,4 mm 1 m/s 630 mmHg 96%
    02:00 +2°C° 0,2 mm 1 m/s 630 mmHg 96%
    03:00 +1°C° 0,2 mm 1 m/s 630 mmHg 96%
    04:00 +1°C° 0,2 mm 1 m/s 630 mmHg 96%
    05:00 +2°C° 0,1 mm 1 m/s 631 mmHg 95%
    06:00 +3°C° 0,1 mm 1 m/s 631 mmHg 94%
    07:00 +4°C° 0,1 mm 1 m/s 632 mmHg 93%
    08:00 +5°C° 0,1 mm 1 m/s 632 mmHg 90%
    09:00 +7°C° 0,1 mm 1 m/s 633 mmHg 87%
    10:00 +8°C° 0,1 mm 1 m/s 633 mmHg 84%
    11:00 +9°C° 0,1 mm 1 m/s 633 mmHg 82%
    12:00 +9°C° 0,1 mm 1 m/s 633 mmHg 80%
    13:00 +10°C° 0,1 mm 1 m/s 633 mmHg 78%
    14:00 +10°C° 0,1 mm 1 m/s 633 mmHg 79%
    15:00 +10°C° 0,1 mm 1 m/s 633 mmHg 80%
    16:00 +10°C° 0,1 mm 1 m/s 632 mmHg 82%
    17:00 +8°C° 0 mm 1 m/s 632 mmHg 86%
    18:00 +6°C° 0 mm 1 m/s 631 mmHg 90%
    19:00 +5°C° 0 mm 1 m/s 631 mmHg 94%
    20:00 +4°C° 0 mm 1 m/s 631 mmHg 94%
    21:00 +2°C° 0 mm 1 m/s 631 mmHg 94%
    22:00 +1°C° 0 mm 1 m/s 630 mmHg 94%
    23:00 +1°C° 0 mm 1 m/s 630 mmHg 92%
    Arată mai mult